Flag for Canada Weather past 2 weeks in London, Ontario, Canada

Now
81 °F

Scattered clouds.


Feels Like: 81 °F
Forecast: 63 / 82 °F
Wind: 15 mph from West

Location: London Weather Station

Current Time: Jul 30, 2015 at 2:21:54 PM

Latest Report: Jul 30, 2015 at 2:00 PM


Visibility: 15 mi

Pressure: 29.90 "Hg

Humidity: 42%

Dew point: 55 °F

Location of LondonLocation

Historic Weather in London — Graph

°F

London temperature yesterday

Maximum temperature yesterday: 88 °F (at 2:00 PM)
Minimum temperature yesterday: 63 °F (at 4:00 AM)
Average temperature yesterday: 76 °F

Past Weeks' High & Low Weather Summary

 TemperatureHumidityPressure
High88 °F (Jul 29, 2:00 PM)100% (Jul 16, 5:00 AM)30.14 "Hg (Jul 16, 5:00 AM)
Low52 °F (Jul 16, 5:00 AM)37% (Jul 24, 1:00 PM)29.66 "Hg (Jul 21, 3:00 AM)
Average71 °F75%29.92 "Hg
* Reported Jul 15 1:00 PM — Jul 30 1:00 PM, London, Weather by CustomWeather, © 2015

Note: Actual official high and low records may vary slightly from our data, if they occured in-between our weather recording intervals... More about our weather records

Advertising

London weather history for previous 24 hours

 ConditionsComfort  
Time TempWeatherWind HumidityBarometerVisibility
1:00 PM
Thu, Jul 30
79 °FScattered clouds.13 mph51%29.90 "Hg15 mi
12:00 PM79 °FPassing clouds.13 mph54%29.90 "Hg15 mi
11:00 AM77 °FPassing clouds.8 mph61%29.90 "Hg15 mi
10:00 AM75 °FPassing clouds.10 mph61%29.90 "Hg15 mi
9:00 AM72 °FPassing clouds.7 mph69%29.90 "Hg15 mi
8:00 AM68 °FPassing clouds.6 mph78%29.90 "Hg15 mi
7:00 AM64 °FPassing clouds.6 mph83%29.90 "Hg15 mi
6:00 AM63 °FPassing clouds.6 mph83%29.88 "Hg15 mi
5:00 AM64 °FClear.6 mph83%29.86 "Hg15 mi
4:00 AM66 °FClear.7 mph78%29.85 "Hg15 mi
3:00 AM68 °FPassing clouds.7 mph78%29.85 "Hg15 mi
2:00 AM72 °FClear.7 mph73%29.87 "Hg15 mi
1:00 AM75 °FPassing clouds.10 mph78%29.87 "Hg15 mi
12:45 AM75 °FOvercast.13 mph83%29.87 "Hg15 mi
12:00 AM75 °FMostly cloudy.13 mph94%29.86 "Hg12 mi
11:00 PM
Wed, Jul 29
77 °FPassing clouds.6 mph83%29.86 "Hg12 mi
10:00 PM79 °FPassing clouds.9 mph74%29.86 "Hg12 mi
9:00 PM79 °FPartly sunny.10 mph74%29.85 "Hg10 mi
8:00 PM81 °FPartly sunny.14 mph66%29.86 "Hg12 mi
7:00 PM81 °FSprinkles. Partly sunny.12 mph66%29.86 "Hg12 mi
6:00 PM81 °FPartly sunny.12 mph66%29.88 "Hg12 mi
5:00 PM84 °FPartly sunny.14 mph51%29.90 "Hg15 mi
4:00 PM86 °FPartly sunny.13 mph49%29.88 "Hg15 mi
3:00 PM88 °FPartly sunny.12 mph46%29.91 "Hg15 mi
2:00 PM88 °FPassing clouds.12 mph46%29.93 "Hg15 mi
Weather by CustomWeather, © 2015

See weather overviewHow to use our weather pages